Find Starlink 34218

NORAD ID: 64338 Int'l Des: 2025-124 Owner: SPXS Country: US Constellation: starlink operational
LEOCIRCULAR

現在のビュー

3D地球を読み込み中...

About Starlink 34218

Starlink 34218 (NORAD 64338) is a starlink constellation satellite (v2 mini) launched Jun 10, 2025 by SPXS of US. It operates in LEO, CIRCULAR orbit with a mass of 575.00 kg.

次回通過

Passes for default location (London). Set your location on the main map for personalized predictions.

高度履歴

Loading altitude history...

軌道要素

1 64338U 25124X 26261.98107545 .00012089 00000-0 44795-3 0 9996
2 64338 43.0004 106.4805 0001512 263.5228 96.5452 15.27592411 71385
Epoch: Sep 18, 2026 • Age: 43 hours

現在のステータス

高度 488.0 km
遠地点 / 近地点 N/A
速度 7.62 km/s
衛星直下点 -23.62°S, 21.58°E
打ち上げ日 Jun 10, 2025
運用期間 1.2 years
タイプ internet

技術仕様

分類 Payload
質量 575.00 kg
乾燥質量 530.00 kg
長さ 0.30 m
スパン 29.00 m
形状 ? Box + pan
製造者 SPXS
バスタイプ Starlink V2MO
フェーズステータス In Orbit
所有者/国 SPXS/US

Most Searched